TimeCET,TemperatureF,Dew PointF,Humidity,Sea Level PressureIn,VisibilityMPH,Wind Direction,Wind SpeedMPH,Gust SpeedMPH,PrecipitationIn,Events,Conditions,WindDirDegrees,DateUTC
12:00 AM,19.4,17.6,93,29.77,5.0,ENE,11.5,-,N/A,,Mostly Cloudy,60,2013-02-22 23:00:00
1:00 AM,19.4,17.6,93,29.74,5.0,NE,10.4,-,N/A,,Overcast,50,2013-02-23 00:00:00
2:00 AM,19.4,17.6,93,29.74,5.0,NE,12.7,-,N/A,,Overcast,50,2013-02-23 01:00:00
3:00 AM,19.4,17.6,93,29.74,5.0,ENE,6.9,-,N/A,,Overcast,60,2013-02-23 02:00:00
4:00 AM,19.4,17.6,93,29.71,5.0,ENE,9.2,-,N/A,,Overcast,70,2013-02-23 03:00:00
5:00 AM,19.4,17.6,93,29.71,5.6,ENE,8.1,-,N/A,,Overcast,60,2013-02-23 04:00:00
6:00 AM,19.4,17.6,93,29.71,6.2,ENE,6.9,-,N/A,,Overcast,70,2013-02-23 05:00:00
6:19 AM,19.4,17.6,93,29.71,4.3,ENE,8.1,-,N/A,Snow,Light Snow,70,2013-02-23 05:19:00
7:00 AM,19.4,17.6,93,29.68,1.7,ENE,5.8,-,N/A,Snow,Light Snow,60,2013-02-23 06:00:00
7:30 AM,19.4,17.6,93,29.68,1.2,ENE,5.8,-,N/A,Snow,Light Snow,60,2013-02-23 06:30:00
8:00 AM,19.4,17.6,93,29.68,1.4,ENE,6.9,-,N/A,Snow,Light Snow,70,2013-02-23 07:00:00
8:30 AM,21.2,17.6,86,29.68,1.2,NE,8.1,-,N/A,Snow,Light Snow,50,2013-02-23 07:30:00
8:48 AM,21.2,17.6,86,29.68,0.9,NE,5.8,-,N/A,Snow,Snow,40,2013-02-23 07:48:00
9:00 AM,21.2,17.6,86,29.68,0.9,NNE,6.9,-,N/A,Snow,Snow,30,2013-02-23 08:00:00
9:30 AM,21.2,17.6,86,29.68,0.9,NNE,8.1,-,N/A,Snow,Light Snow,30,2013-02-23 08:30:00
10:00 AM,21.2,19.4,93,29.68,1.1,NNE,5.8,-,N/A,Snow,Light Snow,20,2013-02-23 09:00:00
10:30 AM,21.2,19.4,93,29.68,0.6,NE,3.5,-,N/A,Snow,Snow,40,2013-02-23 09:30:00
11:00 AM,23.0,19.4,86,29.68,0.4,NE,8.1,-,N/A,Snow,Snow,40,2013-02-23 10:00:00
11:30 AM,23.0,19.4,86,29.68,0.6,NNE,5.8,-,N/A,Snow,Snow,30,2013-02-23 10:30:00
12:00 PM,23.0,19.4,86,29.68,0.9,North,3.5,-,N/A,Snow,Light Snow,360,2013-02-23 11:00:00
12:30 PM,23.0,21.2,93,29.65,0.9,North,4.6,-,N/A,Snow,Snow,10,2013-02-23 11:30:00
1:00 PM,23.0,21.2,93,29.65,0.6,NNE,4.6,-,N/A,Snow,Snow,20,2013-02-23 12:00:00
1:30 PM,23.0,21.2,93,29.65,0.6,North,4.6,-,N/A,Snow,Snow,10,2013-02-23 12:30:00
2:00 PM,24.8,21.2,86,29.68,1.1,NNE,4.6,-,N/A,Snow,Light Snow,30,2013-02-23 13:00:00
2:30 PM,24.8,21.2,86,29.68,0.6,NNE,3.5,-,N/A,Snow,Snow,20,2013-02-23 13:30:00
3:00 PM,24.8,23.0,93,29.68,0.6,NNE,3.5,-,N/A,Snow,Snow,20,2013-02-23 14:00:00
3:30 PM,24.8,23.0,93,29.68,1.2,NNW,5.8,-,N/A,Snow,Light Snow,340,2013-02-23 14:30:00
4:00 PM,24.8,23.0,93,29.68,-9999.0,North,3.5,-,N/A,Snow,Light Snow,350,2013-02-23 15:00:00
4:30 PM,24.8,23.0,93,29.68,3.7,North,4.6,-,N/A,Snow,Light Snow,360,2013-02-23 15:30:00
5:00 PM,24.8,23.0,93,29.68,3.1,North,3.5,-,N/A,Snow,Light Snow,10,2013-02-23 16:00:00
5:30 PM,24.8,21.2,86,29.68,5.0,North,4.6,-,N/A,,Mostly Cloudy,10,2013-02-23 16:30:00
6:00 PM,24.8,21.2,86,29.68,5.0,North,4.6,-,N/A,,Mostly Cloudy,10,2013-02-23 17:00:00
6:30 PM,24.8,21.2,86,29.68,5.6,NNE,4.6,-,N/A,,Overcast,30,2013-02-23 17:30:00
7:00 PM,24.8,21.2,86,29.71,6.2,NE,4.6,-,N/A,,Overcast,40,2013-02-23 18:00:00
7:30 PM,24.8,21.2,86,29.71,6.2,NE,3.5,-,N/A,,Overcast,40,2013-02-23 18:30:00
8:00 PM,24.8,21.2,86,29.71,6.2,NNE,4.6,-,N/A,,Mostly Cloudy,30,2013-02-23 19:00:00
9:00 PM,23.0,21.2,93,29.74,6.2,NE,2.3,-,N/A,,Mostly Cloudy,50,2013-02-23 20:00:00
10:00 PM,23.0,21.2,93,29.74,4.3,NNW,2.3,-,N/A,,Mostly Cloudy,330,2013-02-23 21:00:00
11:00 PM,23.0,21.2,93,29.74,3.1,North,3.5,-,N/A,,Mostly Cloudy,10,2013-02-23 22:00:00